Location: Campo Claro
(10.4907°N, 66.8285°W)
Time: 09:06:27
(UTC+00:00)

Nadezhda 2 Rocket - Pass Details

Date: 08 December 2021
Orbit: 947 x 1012 km, 83.0° (Epoch: 24 January)

Event Time Altitude Azimuth Distance (km) Brightness Sun altitude
Exits shadow 23:47:12 37° 21° (NNE) 1,485 5.1 -24.1°
Maximum altitude 23:49:39 62° 86° (E) 1,098 4.4 -24.7°
Drops below altitude 10° 23:55:47 10° 166° (SSE) 2,716 6.9 -26.1°
Sets 23:58:18 0° 169° (S) 3,653 7.6 -26.7°
